Flag for Philippines Weather past 2 weeks in Makati, Philippines

Now
82 °F

Passing clouds.


Feels Like: 87 °F
Forecast: 82 / 94 °F
Wind: 5 mph from East

Location: National Airport


UV Index: 7 (High)

Visibility: N/A


Pressure: 29.77 "Hg

Humidity: 70%

Dew point: 72 °F

Location of MakatiLocation

Historic Weather in Makati

°F

Makati temperature yesterday

Maximum temperature yesterday: 95 °F (at 2:00 PM)
Minimum temperature yesterday: 81 °F (at 3:00 AM)
Average temperature yesterday: 87 °F

Past Weeks' High & Low Weather Summary

 TemperatureHumidityPressure
High95 °F (Apr 18, 1:00 PM)100% (Apr 20, 8:00 PM)29.92 "Hg (Apr 20, 8:00 PM)
Low68 °F (Apr 20, 8:00 PM)40% (Apr 15, 5:00 PM)29.74 "Hg (Apr 19, 3:00 PM)
Average86 °F62%29.83 "Hg
* Reported Apr 9 3:00 AM — Apr 24 3:00 AM, Makati, Weather by CustomWeather, © 2014

Note: Actual official high and low records may vary slightly from our data, if they occured in-between our weather recording intervals... More about our weather records

Advertising

Historic Weather Conditions — Data for Previous 24 hours

 ConditionsComfort  
Time TempWeatherWind HumidityBarometerVisibility
3:00 AM
Apr 24
81 °FPassing clouds.3 mph70%29.77 "HgN/A
2:00 AM82 °FPassing clouds.5 mph66%29.80 "HgN/A
1:00 AM84 °FPassing clouds.5 mph58%29.80 "HgN/A
12:00 AM84 °FPassing clouds.7 mph62%29.83 "HgN/A
11:00 PM
Apr 23
84 °FPassing clouds.6 mph62%29.83 "HgN/A
10:00 PM84 °FPassing clouds.6 mph66%29.83 "HgN/A
9:00 PM84 °FPassing clouds.N/A70%29.83 "HgN/A
8:00 PM86 °FPassing clouds.8 mph62%29.80 "HgN/A
7:00 PM88 °FPassing clouds.13 mph59%29.80 "HgN/A
6:00 PM88 °FBroken clouds.12 mph62%29.77 "HgN/A
5:00 PM91 °FBroken clouds.10 mph52%29.74 "HgN/A
4:00 PM95 °FBroken clouds.8 mph44%29.74 "HgN/A
3:00 PM95 °FPartly sunny.9 mph41%29.74 "HgN/A
2:00 PM95 °FScattered clouds.6 mph44%29.77 "HgN/A
1:00 PM93 °FScattered clouds.7 mph49%29.80 "HgN/A
12:00 PM91 °FScattered clouds.7 mph52%29.83 "HgN/A
11:00 AM90 °FScattered clouds.8 mph59%29.86 "HgN/A
10:00 AM88 °FBroken clouds.6 mph59%29.89 "HgN/A
9:00 AM86 °FPartly sunny.5 mph66%29.89 "HgN/A
8:00 AM86 °FScattered clouds.3 mph62%29.89 "HgN/A
7:00 AM82 °FScattered clouds.3 mph70%29.86 "HgN/A
6:00 AM81 °FPartly sunny.6 mph74%29.86 "HgN/A
5:00 AM81 °FPassing clouds.5 mph84%29.83 "HgN/A
4:00 AM81 °FPassing clouds.3 mph84%29.83 "HgN/A
Weather by CustomWeather, © 2014

See weather overview